Find Optus 10

NORAD ID: 40146 Int'l Des: 2014-054 Owner: OPTS Country: AU operational
HEOCIRCULARGSOGEO

Live-Position

3D-Globus wird geladen...

Über Optus 10

Beschreibung wird geladen...

Nächste Überflüge

Passes for default location (London). Set your location on the main map for personalized predictions.

Höhenverlauf

Loading altitude history...

Zweizeiliger Elementsatz

1 40146U 14054A 26131.78305697 -.00000136 00000-0 00000+0 0 9997
2 40146 0.0857 307.2846 0002023 101.9619 258.2318 1.00270532 42668
Epoch: 11. Mai 2026 • Age: 9 hours

Aktueller Status

Höhe 35779.7 km
Geschwindigkeit 3.08 km/s
Subsatellitenpunkt 0.06°N, 156.01°E
Startdatum 11. Sept. 2014
Alter 11.6 years
Typ other

Technische Details

Klassifizierung Payload
Masse 3970.00 kg
Trockenmasse 2000.00 kg
Gesamtmasse 3970.00 kg
Länge 5.10 m
Durchmesser 3.10 m
Spannweite 24.70 m
Form Box + 2 pan
Hersteller SSL
Bus-Typ LS-1300LL
Phasenstatus In Orbit
Besitzer/Staat OPTS/AU

Most Searched